Flag for Germany Weather past 2 weeks in Stuttgart, Baden-Württemberg, Germany

Now
61 °F

Partly sunny.


Feels Like: 61 °F
Forecast: 53 / 76 °F
Wind: 3 mph from North

Location: Stuttgart-Echterdingen

Current Time: Aug 27, 2014 at 1:29:55 PM

Latest Report: Aug 27, 2014 at 12:50 PM


Visibility: N/A

Pressure: 30.01 "Hg

Humidity: 77%

Dew point: 54 °F

Location of StuttgartLocation

Historic Weather in Stuttgart — Graph

°F

Stuttgart temperature yesterday

Maximum temperature yesterday: 68 °F (at 1:20 PM)
Minimum temperature yesterday: 54 °F (at 1:50 AM)
Average temperature yesterday: 60 °F

Past Weeks' High & Low Weather Summary

 TemperatureHumidityPressure
High72 °F (Aug 12, 4:20 PM)100% (Aug 13, 4:20 AM)30.18 "Hg (Aug 13, 4:20 AM)
Low45 °F (Aug 25, 5:20 AM)38% (Aug 22, 4:20 PM)29.68 "Hg (Aug 13, 1:20 PM)
Average59 °F74%29.97 "Hg
* Reported Aug 12 12:20 PM — Aug 27 12:20 PM, Stuttgart, Weather by CustomWeather, © 2014

Note: Actual official high and low records may vary slightly from our data, if they occured in-between our weather recording intervals... More about our weather records

Advertising

Stuttgart weather history for previous 24 hours

 ConditionsComfort  
Time TempWeatherWind HumidityBarometerVisibility
12:20 PM
Aug 27
61 °FPartly sunny.3 mph77%30.01 "HgN/A
11:50 AM59 °FPartly sunny.5 mph88%30.01 "HgN/A
11:20 AM59 °FPartly sunny.6 mph88%30.01 "HgN/A
10:50 AM59 °FBroken clouds.5 mph82%29.98 "HgN/A
10:20 AM57 °FBroken clouds.7 mph94%29.98 "HgN/A
9:50 AM57 °FBroken clouds.7 mph88%29.98 "HgN/A
9:20 AM57 °FSprinkles. Partly sunny.9 mph94%29.95 "Hg5 mi
8:50 AM59 °FBroken clouds.5 mph94%29.95 "HgN/A
8:20 AM59 °FSprinkles. Broken clouds.6 mph94%29.95 "HgN/A
7:50 AM59 °FBroken clouds.3 mph88%29.92 "HgN/A
7:20 AM57 °FPartly cloudy.7 mph94%29.89 "HgN/A
6:50 AM57 °FSprinkles. Partly cloudy.7 mph94%29.89 "HgN/A
6:20 AM59 °FSprinkles. Partly cloudy.3 mph88%29.89 "HgN/A
5:50 AM59 °FPartly cloudy.5 mph88%29.86 "HgN/A
5:20 AM59 °FPartly cloudy.5 mph88%29.86 "HgN/A
4:50 AM59 °FPassing clouds.5 mph88%29.86 "HgN/A
4:20 AM59 °FPassing clouds.5 mph88%29.83 "HgN/A
3:50 AM59 °FPartly cloudy.6 mph88%29.83 "HgN/A
3:20 AM59 °FPassing clouds.9 mph88%29.83 "HgN/A
2:20 AM59 °FPartly cloudy.3 mph94%29.83 "HgN/A
1:50 AM59 °FSprinkles. Passing clouds.2 mph94%29.83 "HgN/A
1:20 AM59 °FSprinkles. Partly cloudy.2 mph94%29.83 "HgN/A
12:50 AM59 °FPassing clouds.2 mph94%29.83 "HgN/A
12:20 AM59 °FPassing clouds.5 mph94%29.83 "HgN/A
11:50 PM
Aug 26
59 °FSprinkles. Partly cloudy.7 mph94%29.80 "HgN/A
11:20 PM61 °FRain showers. Partly cloudy.10 mph94%29.80 "Hg4 mi
10:50 PM59 °FRain showers. Partly cloudy.3 mph100%29.77 "Hg4 mi
10:20 PM59 °FSprinkles. Partly cloudy.3 mph100%29.77 "HgN/A
9:50 PM59 °FPartly cloudy.2 mph100%29.77 "HgN/A
9:20 PM59 °FRain showers. Partly cloudy.1 mph100%29.80 "Hg5 mi
8:50 PM59 °FRain showers. Broken clouds.2 mph100%29.77 "Hg5 mi
8:20 PM59 °FSprinkles. Broken clouds.7 mph100%29.74 "Hg5 mi
7:50 PM61 °FRain showers. Broken clouds.5 mph94%29.74 "Hg3 mi
7:20 PM61 °FLots of rain. Broken clouds.7 mph94%29.74 "Hg3 mi
6:50 PM61 °FSprinkles. Partly sunny.5 mph94%29.74 "Hg4 mi
6:20 PM61 °FLots of rain. Partly sunny.6 mph94%29.74 "Hg2 mi
5:50 PM61 °FRain showers. Broken clouds.8 mph94%29.74 "HgN/A
5:20 PM68 °FSprinkles. Broken clouds.3 mph73%29.74 "HgN/A
4:50 PM68 °FSprinkles. Broken clouds.6 mph73%29.74 "HgN/A
4:20 PM68 °FScattered showers. Broken clouds.5 mph78%29.74 "HgN/A
3:50 PM66 °FBroken clouds.5 mph78%29.77 "HgN/A
3:20 PM64 °FSprinkles. Broken clouds.6 mph88%29.77 "HgN/A
2:50 PM66 °FBroken clouds.8 mph73%29.77 "HgN/A
2:20 PM68 °FBroken clouds.9 mph73%29.77 "HgN/A
1:50 PM68 °FBroken clouds.9 mph69%29.77 "HgN/A
1:20 PM68 °FScattered clouds.9 mph69%29.77 "HgN/A
Weather by CustomWeather, © 2014

See weather overviewHow to use our weather pages